Welcome to the New NWS' Forecast!
Most changes are behind the scenes, but click here for differences you might notice.
Latest weather observations around

Charleston, Charleston Air Force Base (KCHS)

Using English Units (Switch to International System of Units)
Date/ Time (EDT) Wind (mph) Vis. (mi) Weather Sky Cond. Temp (°F) Rel. Humidity Wind Chill (°F) Heat Index (°F) Pressure Precip. (in)
Air Dwpt 6 hour Altimeter (inHg) Sea level (inHg) 1 hr 3 hr 6 hr
Max Min
Oct 23 13:56   10 Cloudy FEW020 BKN035 OVC120 77 73     88%   79 29.97 29.96     0
Oct 23 12:56   10 Cloudy SCT020 BKN035 OVC120 78 73     85%   80 30 29.99 0    
Oct 23 09:56 SSE 13 10 Cloudy BKN035 OVC050 76 70     82%   77 30.07 30.06 0    
Oct 23 08:56 SSE 9 10 Mostly Cloudy SCT030 BKN045 BKN065 74 70     87%   75 30.08 30.07 0    
Oct 23 07:56 SSE 10 10 Mostly Cloudy FEW010 SCT040 BKN120 73 71     94%   74 30.08 30.08     1
Oct 23 05:56 SSE 9 5 Light Rain and Fog/Mist FEW009 BKN032 OVC050 71 71     100%   73 30.1 30.09 0    
Oct 23 05:51 SE 9 5 Light Rain and Fog/Mist FEW009 BKN032 OVC050 72 72     100%   73 30.1   0    
Oct 23 05:41 SSE 9 2.5 Heavy Rain and Fog/Mist FEW009 BKN035 OVC060 71 71     100%   73 30.1   0    
Oct 23 04:56 S 13 5 Light Rain and Fog/Mist FEW009 SCT035 OVC060 72 71     97%   73 30.11 30.11 0 0  
Oct 23 04:39 S 10 4 Light Rain and Fog/Mist FEW007 SCT024 OVC040 72 71     97%   73 30.11   0    
Oct 23 04:25 S 9 2.5 Rain and Fog/Mist FEW007 BKN024 BKN040 72 71     97%   73 30.12   0    
Oct 23 03:56 S 7 10 Light Rain FEW006 BKN032 OVC042 72 71     97%   73 30.12 30.12 0    
Oct 23 03:39 S 8 6 Light Rain and Fog/Mist FEW006 SCT020 OVC036 72 71     97%   73 30.12   0    
Oct 23 03:31 SSW 8 2 Heavy Rain and Fog/Mist FEW006 BKN030 BKN050 72 72     100%   74 30.13   0    
Oct 23 03:21 S 11 1.25 Heavy Rain and Fog/Mist FEW006 BKN022 BKN055 72 71     97%   73 30.13   0    
Oct 23 03:18   3 Heavy Rain and Fog/Mist FEW006 BKN022 BKN055 72 72     100%   74 30.14   0    
Oct 23 02:56 ESE 9 10 Mostly Cloudy FEW007 SCT040 BKN110 73 71     94%   74 30.12 30.12      
Oct 23 01:56 SE 7 10 Cloudy FEW007 SCT024 OVC045 73 71     94%   74 30.14 30.14     0
Oct 23 00:56 E 6 10 Mostly Cloudy FEW007 SCT026 BKN035 72 72     100%   74 30.16 30.15 0    
Oct 22 23:56 E 7 8 Rain FEW007 SCT025 BKN160 72 71     97%   73 30.17 30.17 0    
Oct 22 22:56 ENE 7 10 Mostly Cloudy FEW008 SCT070 BKN250 71 71     100%   73 30.19 30.19 0 0  
Oct 22 21:56 ENE 9 3 Light Rain and Fog/Mist FEW009 BKN033 OVC044 71 71     100%   73 30.2 30.2 0    
Oct 22 20:56 E 10 3 Light Rain and Fog/Mist SCT007 OVC038 72 72     100%   74 30.2 30.2 0    
Oct 22 20:39 E 11 3 Light Rain and Fog/Mist SCT007 OVC035 72 71     97%   73 30.2   0    
Oct 22 20:14 SE 8 2.5 Heavy Rain and Fog/Mist SCT007 BKN021 OVC028 72 71     97%   73 30.2   0    
Oct 22 19:56 ESE 11 6 Light Rain and Fog/Mist FEW012 BKN028 OVC037 73 71     94%   74 30.2 30.19 0   0
Oct 22 19:48 E 13 6 Light Rain and Fog/Mist FEW012 BKN028 OVC037 73 71     94%   74 30.19   0    
Oct 22 18:56 ESE 11 8 Mostly Cloudy SCT030 BKN037 75 69     82%   76 30.19 30.18      
Oct 22 17:56 E 7 10 Cloudy BKN028 OVC045 75 70     84%   76 30.18 30.18 0    
Oct 22 17:21 ESE 9 4 Heavy Rain and Fog/Mist FEW007 OVC028 72 71     97%   73 30.19   0    
Oct 22 17:14 SSE 13 2 Heavy Rain and Fog/Mist FEW007 OVC025 72 71     97%   73 30.19   0    
Oct 22 16:56 ENE 7 6 Light Rain and Fog/Mist BKN028 OVC040 73 71     94%   74 30.18 30.18 0 0  
Oct 22 15:56 ESE 6 4 Light Rain and Fog/Mist SCT015 BKN025 OVC050 73 72     96%   75 30.2 30.2 0    
Oct 22 14:56   4 Light Rain BKN026 OVC035 75 70     84%   76 30.22 30.21 0    
Oct 22 13:56 E 14 10 Cloudy BKN029 OVC037 78 67     69%   79 30.23 30.23 0   0
Oct 22 12:56 E 13 10 Mostly Cloudy BKN033 BKN046 79 67     67%   80 30.25 30.25      
Oct 22 11:56 ENE 10 10 Mostly Cloudy SCT043 SCT055 BKN150 79 67     67%   80 30.28 30.27      
Oct 22 10:56 E 10 10 Partly Cloudy FEW050 SCT065 77 67     71%   78 30.28 30.27      
Oct 22 09:56 ENE 9 10 Cloudy OVC055 73 68     84%   74 30.29 30.28      
Oct 22 08:56 ENE 8 10 Cloudy BKN050 OVC060 70 67     90%     30.28 30.28      
Oct 22 07:56 ENE 7 10 Mostly Cloudy BKN060 69 66     90%     30.26 30.26      
Oct 22 06:56 NE 10 10 Mostly Clear FEW060 FEW150 67 66     97%     30.25 30.25      
Oct 22 05:56 NE 8 10 Mostly Clear FEW060 67 66     97%     30.25 30.24      
Oct 22 04:56 NE 8 10 Mostly Clear FEW050 67 66     97%     30.24 30.24      
Oct 22 03:56 NE 6 10 Partly Cloudy FEW040 SCT100 67 66     97%     30.25 30.24      
Oct 22 02:56 NE 7 10 Partly Cloudy SCT250 67 66     97%     30.25 30.25      
Oct 22 01:56 ENE 7 10 Partly Cloudy SCT250 68 66     93%     30.26 30.26      
Oct 22 00:56 ENE 7 10 Partly Cloudy FEW040 SCT250 67 65     93%     30.27 30.27      
Oct 21 23:56 ENE 6 10 Partly Cloudy FEW050 SCT250 67 65     93%     30.28 30.28      
Oct 21 22:56 ENE 9 10 Partly Cloudy SCT250 67 65     93%     30.28 30.28      
Oct 21 21:56 ENE 7 10 Mostly Cloudy BKN250 68 65     90%     30.29 30.29      
Oct 21 20:56 ENE 7 10 Partly Cloudy SCT250 68 65     90%     30.28 30.28      
Oct 21 19:56 ENE 7 10 Mostly Cloudy BKN250 70 64     81%     30.28 30.27      
Oct 21 18:56 E 8 10 Mostly Cloudy BKN250 72 64     76%   72 30.28 30.27      
Oct 21 17:56 E 10 10 Mostly Cloudy FEW042 BKN250 75 63     66%   75 30.26 30.26      
Oct 21 16:56 E 8 10 Mostly Cloudy FEW042 BKN250 77 64     64%   77 30.26 30.26      
Oct 21 15:56 E 8 10 Mostly Cloudy FEW040 BKN250 80 63     56%   81 30.25 30.25      
Oct 21 14:56 E 6 10 Mostly Cloudy FEW040 BKN250 78 62     58%   78 30.26 30.25      
Oct 21 13:56 SE 8 10 Partly Cloudy FEW040 SCT250 80 63     56%   81 30.27 30.26      
Oct 21 12:56 NNE 6 10 Partly Cloudy SCT250 80 62     54%   81 30.29 30.29      
Oct 21 11:56 NE 7 10 Partly Cloudy SCT250 77 61     58%   77 30.3 30.3      
Oct 21 10:56 NE 9 10 Partly Cloudy SCT250 74 61     64%   74 30.3 30.29      
Oct 21 09:56 NE 7 10 Partly Cloudy SCT250 69 60     73%     30.3 30.29      
Oct 21 08:56 NNE 6 10 Partly Cloudy SCT250 63 59     87%     30.29 30.29      
Oct 21 07:56 Calm 10 Mostly Clear FEW250 56 55     97%     30.26 30.26      
Oct 21 06:56 Calm 10 Clear CLR 55 55     100%     30.24 30.24      
Oct 21 05:56 NNW 3 6 Fog FEW020 55 55     100%     30.23 30.23      
Oct 21 04:56 N 3 6 Fog FEW020 54 54     100%     30.22 30.21      
Oct 21 03:56 Calm 6 Fog CLR 55 55     100%     30.21 30.21      
Oct 21 02:56 Calm 6 Fog CLR 57 57     100%     30.22 30.21      
Oct 21 01:56 Calm 10 Clear CLR 56 56     100%     30.22 30.22      
Oct 21 00:56 Calm 10 Clear CLR 58 58     100%     30.23 30.23      
Oct 20 23:56 Calm 10 Clear CLR 61 60     97%     30.24 30.24      
Oct 20 22:56 Calm 10 Clear CLR 62 60     93%     30.23 30.23      
Oct 20 21:56 Calm 10 Clear CLR 62 60     93%     30.21 30.21      
Oct 20 20:56 Calm 10 Clear CLR 63 59     87%     30.21 30.21      
Oct 20 19:56 SE 3 10 Clear CLR 67 59     76%     30.21 30.2      
Oct 20 18:56 SE 6 10 Clear CLR 69 60     73%     30.19 30.19      
Oct 20 17:56 NE 6 10 Clear CLR 76 51     42%   75 30.17 30.17      
Oct 20 16:56 NE 7 10 Clear CLR 79 54     42%   79 30.17 30.17      
Oct 20 15:56 NNW 5 10 Clear CLR 80 53     39%   80 30.17 30.17      
Oct 20 14:56 NNE 5 10 Mostly Clear FEW055 80 56     44%   80 30.19 30.19      
Jun 11 23:56 Calm 10 Mostly Cloudy BKN200 72 66     82%   73 30.19 30.19      
Jun 11 19:56 SSE 6 10 Mostly Cloudy FEW150 BKN220 77 63     62%   77 30.18 30.18      
Jun 10 22:56 SSE 6 10 Partly Cloudy SCT250 74 69     85%   75 30.17 30.17      
Jun 10 07:56 Calm 10 Mostly Clear FEW080 73 67     81%   74 30.1 30.09      
Jun 09 14:56 S 10 10 Mostly Cloudy BKN045 BKN250 84 65     53%   86 29.96 29.96      
Jun 09 08:56 SSE 5 10 Mostly Clear FEW250 71 62     73%   71 29.99 29.99      
Jun 08 21:56 E 6 10 Clear CLR 68 60     76%     29.88 29.88      
Notice The following observation data may not be complete
Jun 08 20:56   10 Clear CLR          %              
Jun 08 16:56 NNE 10 10 Partly Cloudy SCT040 76 56     50%   76 29.81 29.81      
Jun 08 08:15 N 14 2 Heavy Rain and Fog/Mist SCT010 BKN015 OVC035 61 59     93%     29.83   0    
Jun 07 18:56   4 Rain and Fog/Mist SCT011 SCT020 OVC050 66 63     90%     29.8 29.8 0    
Jun 07 14:56 NNE 14 10 Cloudy BKN010 BKN015 OVC025 70 67     90%     29.79 29.79 0    
Notice The following observation data may not be complete
Jun 07 14:33   10 Cloudy BKN010 BKN015 OVC020          %         0    
Jun 07 10:37 N 6 1.5 Heavy Rain and Fog/Mist FEW007 BKN025 OVC065 70 68     93%     29.79   0    
Jun 06 02:56 SW 9 10 Mostly Cloudy FEW050 BKN120 73 70     90%   74 29.78 29.78 0    
Jun 05 21:56 WSW 9 8 Thunderstorms and Rain SCT030 BKN045 OVC070 73 70     90%   74 29.81 29.81 0    
Jun 05 16:56   10 Thunderstorms and Rain SCT030 BKN060 BKN090 76 72     88%   77 29.78 29.78 0 0  
Jun 05 16:04 W 7 10 Mostly Cloudy SCT030 BKN045 BKN250 79 72     79%   82 29.75   0